La Grande Iv, Quebec

6:47 PM EST on February 17, 2018 (GMT -0500)
La Grande Iv

Weather History for CYAH - January, 2013

Change the Weather History Date:

Saturday, January 5, 2013

  Actual Average Record
Temperature  
Mean Temperature -7 °F -  
Max Temperature 0 °F 1 °F 35 °F (2007)
Min Temperature -14 °F -12 °F -36 °F (1997)
Degree Days  
Heating Degree Days 72    
Moisture  
Dew Point -11 °F    
Average Humidity 77    
Maximum Humidity 85    
Minimum Humidity 59    
Precipitation  
Precipitation 0.00 in - - ()
Sea Level Pressure  
Sea Level Pressure 29.81 in    
Wind  
Wind Speed 11 mph ()    
Max Wind Speed 22 mph    
Max Gust Speed 30 mph    
Visibility 5.1 miles    
Events Snow    
Averages and records for this station are not official NWS values.
T = Trace of Precipitation, MM = Missing Value Source: Averaged Metar Reports

Daily Weather History Graph

Daily Weather History Graph

Search for Another Location

Airport or City:

Trip Planner

Search our weather history database for the weather conditions in past years. The results will help you decide how hot, cold, wet, or windy it might be!

Date:

Astronomy

Jan. 05, 2013 Rise Set
Actual Time 8:10 AM EST 3:50 PM EST
Civil Twilight 7:28 AM EST 4:32 PM EST
Nautical Twilight 6:43 AM EST 5:17 PM EST
Astronomical Twilight 6:00 AM EST 6:00 PM EST
Moon 12:41 AM EST (1/5) 11:07 AM EST (1/5)
Length of Visible Light 9h 04m
Length of Day
7h 39m
Last Quarter, 44% of the Moon is Illuminated
Jan 5
Last Quarter
Jan 11
New
Jan 18
First Quarter
Jan 26
Full
Feb 3
Last Quarter

Hourly Weather History & Observations

Time (EST) Temp. Windchill Dew Point Humidity Pressure Visibility Wind Dir Wind Speed Gust Speed Precip Events Conditions
12:00 AM -4.0 °F -17.8 °F -7.6 °F 85% 29.58 in 6.0 mi West 6.9 mph - N/A Snow Light Snow
12:04 AM -4.0 °F -17.8 °F -7.6 °F 85% 29.58 in 5.0 mi West 6.9 mph - N/A Snow Light Snow
12:27 AM -4.0 °F -19.0 °F -9.4 °F 78% 29.58 in 6.0 mi West 8.1 mph - N/A Snow Light Snow
1:00 AM -5 °F - -9 °F 72% 29.61 in 10 mi West 8.1 mph - - Snow Light Snow
1:00 AM -4.0 °F -17.8 °F -9.4 °F 78% 29.61 in 9.0 mi West 6.9 mph - N/A Snow Light Snow
1:13 AM -5.8 °F -19.9 °F -9.4 °F 84% 29.62 in 9.0 mi West 6.9 mph - N/A   Mostly Cloudy
1:32 AM -5.8 °F -16.7 °F -9.4 °F 84% 29.63 in 9.0 mi WSW 4.6 mph - N/A Snow Light Snow
1:41 AM -5.8 °F -18.4 °F -11.2 °F 77% 29.64 in 9.0 mi West 5.8 mph - N/A   Clear
2:00 AM -7.6 °F -22.1 °F -11.2 °F 84% 29.65 in 9.0 mi West 6.9 mph - N/A   Clear
3:00 AM -7.6 °F -25.7 °F -11.2 °F 84% 29.70 in 9.0 mi West 10.4 mph - N/A   Clear
3:33 AM -9.4 °F -27.9 °F -13.0 °F 84% 29.73 in 7.0 mi West 10.4 mph - N/A Snow Light Snow
3:34 AM -9.4 °F -26.8 °F -13.0 °F 84% 29.73 in 6.0 mi West 9.2 mph - N/A Snow Light Snow
3:37 AM -9.4 °F -26.8 °F -13.0 °F 84% 29.74 in 4.0 mi West 9.2 mph - N/A Snow Light Snow
3:46 AM -9.4 °F -26.8 °F -13.0 °F 84% 29.75 in 6.0 mi West 9.2 mph - N/A Snow Light Snow
3:54 AM -9.4 °F -29.8 °F -13.0 °F 84% 29.75 in 9.0 mi West 12.7 mph - N/A   Clear
4:00 AM -9.4 °F -28.9 °F -13.0 °F 84% 29.76 in 9.0 mi West 11.5 mph - N/A   Clear
4:11 AM -9.4 °F -26.8 °F -13.0 °F 84% 29.77 in 9.0 mi WSW 9.2 mph - N/A Snow Light Snow
4:20 AM -9.4 °F -27.9 °F -14.8 °F 77% 29.77 in 9.0 mi WSW 10.4 mph - N/A   Partly Cloudy
4:39 AM -11.2 °F -31.1 °F -14.8 °F 84% 29.79 in 9.0 mi WSW 11.5 mph - N/A Snow Light Snow
5:00 AM -9.4 °F -29.8 °F -14.8 °F 77% 29.81 in 9.0 mi WSW 12.7 mph - N/A Snow Light Snow
5:10 AM -9.4 °F -29.8 °F -14.8 °F 77% 29.81 in 9.0 mi WSW 12.7 mph - N/A Snow Light Snow
5:14 AM -9.4 °F -28.9 °F -14.8 °F 77% 29.81 in 9.0 mi WSW 11.5 mph 17.3 mph N/A   Scattered Clouds
5:25 AM -9.4 °F -28.9 °F -14.8 °F 77% 29.82 in 9.0 mi West 11.5 mph - N/A   Mostly Cloudy
5:36 AM -9.4 °F -31.4 °F -14.8 °F 77% 29.83 in 9.0 mi WSW 15.0 mph - N/A   Scattered Clouds
5:48 AM -9.4 °F -32.1 °F -14.8 °F 77% 29.83 in 8.0 mi WSW 16.1 mph - N/A   Mostly Cloudy
5:54 AM -9.4 °F -30.6 °F -14.8 °F 77% 29.83 in 6.0 mi WSW 13.8 mph - N/A Snow Light Snow
6:00 AM -9.4 °F -29.8 °F -14.8 °F 77% 29.84 in 9.0 mi WSW 12.7 mph - N/A Snow Light Snow
6:06 AM -9.4 °F -28.9 °F -14.8 °F 77% 29.84 in 9.0 mi WSW 11.5 mph - N/A   Mostly Cloudy
6:21 AM -9.4 °F -27.9 °F -14.8 °F 77% 29.85 in 9.0 mi WSW 10.4 mph - N/A   Scattered Clouds
6:31 AM -9.4 °F -27.9 °F -14.8 °F 77% 29.86 in 9.0 mi WSW 10.4 mph - N/A Snow Light Snow
6:48 AM -11.2 °F -31.1 °F -16.6 °F 77% 29.86 in 9.0 mi WSW 11.5 mph - N/A Snow Light Snow
6:57 AM -11.2 °F -30.1 °F -14.8 °F 84% 29.86 in 9.0 mi WSW 10.4 mph - N/A   Scattered Clouds
7:00 AM -11 °F - -15 °F 71% 29.87 in 10 mi WSW 10.4 mph - -  
7:00 AM -11.2 °F -31.1 °F -14.8 °F 84% 29.86 in 9.0 mi WSW 11.5 mph - N/A   Scattered Clouds
7:04 AM -11.2 °F -30.1 °F -14.8 °F 84% 29.86 in 7.0 mi WSW 10.4 mph - N/A Snow Light Snow
7:36 AM -13.0 °F -32.4 °F -18.4 °F 77% 29.88 in 5.0 mi SSW 10.4 mph - N/A Snow Light Snow
7:46 AM -13.0 °F -31.3 °F -16.6 °F 84% 29.88 in 7.0 mi SW 9.2 mph - N/A Snow Light Snow
8:00 AM -14.8 °F -32.2 °F -22.0 °F 70% 29.90 in 8.0 mi SW 8.1 mph - N/A Snow Light Snow
10:00 AM -11.2 °F -31.1 °F -20.2 °F 64% 29.92 in 6.0 mi WSW 11.5 mph - N/A Snow Light Snow
11:00 AM -9.4 °F -30.6 °F -18.4 °F 65% 29.93 in 8.0 mi WSW 13.8 mph 20.7 mph N/A Snow Light Snow
12:00 PM -9.4 °F -30.6 °F -18.4 °F 65% 29.91 in 3.0 mi SW 13.8 mph 19.6 mph N/A Snow Light Snow
1:00 PM -5 °F - -11 °F 62% 29.89 in 2 mi SW 15.0 mph - - Snow Light Snow
1:00 PM -9.4 °F -32.1 °F -18.4 °F 65% 29.90 in 5.0 mi SW 16.1 mph - N/A Snow Light Snow
2:00 PM -7.6 °F -28.3 °F -18.4 °F 59% 29.89 in 5.0 mi SW 13.8 mph 19.6 mph N/A Snow Light Snow
3:00 PM -7.6 °F -29.1 °F -16.6 °F 65% 29.88 in 4.0 mi SW 15.0 mph - N/A Snow Light Snow
4:00 PM -5.8 °F -25.2 °F -14.8 °F 65% 29.86 in 1.0 mi SW 12.7 mph 20.7 mph N/A Snow Light Snow
4:10 PM -2.2 °F -22.2 °F -7.6 °F 78% 29.85 in 1.0 mi SW 15.0 mph - N/A Snow Light Snow
4:26 PM -2.2 °F -18.9 °F -7.6 °F 78% 29.84 in 1.5 mi SW 10.4 mph 17.3 mph N/A Snow Light Snow
4:37 PM -0.4 °F -19.9 °F -5.8 °F 78% 29.84 in 2.0 mi SW 15.0 mph - N/A Snow Light Snow
4:40 PM -0.4 °F -18.4 °F -7.6 °F 72% 29.84 in 2.5 mi SW 12.7 mph 20.7 mph N/A Snow Light Snow
4:43 PM -0.4 °F -19.9 °F -5.8 °F 78% 29.84 in 3.0 mi SW 15.0 mph - N/A Snow Light Snow
5:00 PM -0.4 °F -17.6 °F -5.8 °F 78% 29.83 in 5.0 mi SW 11.5 mph 19.6 mph N/A Snow Light Snow
5:23 PM -0.4 °F -21.2 °F -5.8 °F 78% 29.83 in 2.2 mi SW 17.3 mph 23.0 mph N/A Snow Light Snow
5:59 PM -2.2 °F -24.1 °F -5.8 °F 85% 29.83 in 1.8 mi SW 18.4 mph 24.2 mph N/A Snow Light Snow
6:18 PM -0.4 °F -19.9 °F -5.8 °F 78% 29.83 in 1.5 mi SW 15.0 mph 21.9 mph N/A Snow Light Snow
6:34 PM -0.4 °F -20.5 °F -5.8 °F 78% 29.83 in 2.5 mi SW 16.1 mph 23.0 mph N/A Snow Light Snow
7:00 PM -1 °F - -6 °F 71% 29.83 in 2 mi WSW 16.1 mph - - Snow Light Snow
7:00 PM -0.4 °F -21.2 °F -5.8 °F 78% 29.83 in 2.5 mi WSW 17.3 mph - N/A Snow Light Snow
7:01 PM -0.4 °F -21.2 °F -5.8 °F 78% 29.83 in 2.2 mi WSW 17.3 mph - N/A Snow Light Snow
7:32 PM -0.4 °F -22.8 °F -5.8 °F 78% 29.83 in 1.2 mi WSW 20.7 mph 26.5 mph N/A Snow Light Snow
7:45 PM -0.4 °F -22.8 °F -5.8 °F 78% 29.83 in 1.5 mi WSW 20.7 mph 27.6 mph N/A Snow Light Snow
8:00 PM -0.4 °F -21.7 °F -5.8 °F 78% 29.83 in 1.5 mi WSW 18.4 mph 25.3 mph N/A Snow Light Snow
8:10 PM -0.4 °F -21.7 °F -5.8 °F 78% 29.83 in 2.5 mi WSW 18.4 mph 24.2 mph N/A Snow Light Snow
8:13 PM -0.4 °F -21.2 °F -5.8 °F 78% 29.83 in 3.0 mi WSW 17.3 mph 24.2 mph N/A Snow Light Snow
8:37 PM -0.4 °F -20.5 °F -5.8 °F 78% 29.83 in 2.2 mi WSW 16.1 mph - N/A Snow Light Snow
8:51 PM -0.4 °F -20.5 °F -5.8 °F 78% 29.82 in 1.8 mi WSW 16.1 mph - N/A Snow Light Snow
9:00 PM -0.4 °F -21.2 °F -5.8 °F 78% 29.82 in 1.2 mi WSW 17.3 mph - N/A Snow Light Snow
9:27 PM -2.2 °F -23.5 °F -5.8 °F 85% 29.81 in 1.5 mi WSW 17.3 mph - N/A Snow Light Snow
9:58 PM -2.2 °F -24.7 °F -7.6 °F 78% 29.82 in 2.5 mi West 19.6 mph 27.6 mph N/A Snow Light Snow
10:00 PM -2.2 °F -25.7 °F -7.6 °F 78% 29.81 in 2.5 mi West 21.9 mph 29.9 mph N/A Snow Light Snow
10:01 PM -2.2 °F -24.7 °F -7.6 °F 78% 29.81 in 2.0 mi West 19.6 mph 29.9 mph N/A Snow Light Snow
10:19 PM -2.2 °F -22.9 °F -9.4 °F 71% 29.82 in 2.5 mi West 16.1 mph 25.3 mph N/A Snow Light Snow
10:22 PM -2.2 °F -23.5 °F -9.4 °F 71% 29.82 in 3.0 mi West 17.3 mph 25.3 mph N/A Snow Light Snow
10:23 PM -2.2 °F -22.9 °F -9.4 °F 71% 29.82 in 3.0 mi West 16.1 mph 25.3 mph N/A   Haze
10:34 PM -4.0 °F -25.2 °F -9.4 °F 78% 29.82 in 3.0 mi West 16.1 mph - N/A Snow Light Snow
10:45 PM -2.2 °F -22.2 °F -7.6 °F 78% 29.83 in 4.0 mi West 15.0 mph 24.2 mph N/A Snow Light Snow
10:46 PM -2.2 °F -23.5 °F -7.6 °F 78% 29.83 in 4.0 mi West 17.3 mph 24.2 mph N/A   Haze
10:52 PM -2.2 °F -24.1 °F -9.4 °F 71% 29.83 in 2.5 mi West 18.4 mph - N/A   Haze
10:54 PM -2.2 °F -22.2 °F -9.4 °F 71% 29.83 in 2.5 mi West 15.0 mph 23.0 mph N/A Snow Light Snow
11:00 PM -4.0 °F -23.7 °F -9.4 °F 78% 29.83 in 2.5 mi West 13.8 mph 23.0 mph N/A Snow Light Snow
11:01 PM -4.0 °F -25.2 °F -9.4 °F 78% 29.83 in 3.0 mi West 16.1 mph 21.9 mph N/A Snow Light Snow
11:08 PM -4.0 °F -23.7 °F -9.4 °F 78% 29.83 in 3.0 mi West 13.8 mph 21.9 mph N/A   Haze
11:10 PM -4.0 °F -25.2 °F -9.4 °F 78% 29.83 in 3.0 mi West 16.1 mph 21.9 mph N/A   Haze
11:19 PM -4.0 °F -24.5 °F -9.4 °F 78% 29.83 in 6.0 mi West 15.0 mph - N/A   Haze
11:20 PM -4.0 °F -25.2 °F -9.4 °F 78% 29.83 in 5.0 mi West 16.1 mph - N/A   Haze
11:31 PM -4.0 °F -22.1 °F -9.4 °F 78% 29.83 in 2.5 mi West 11.5 mph 19.6 mph N/A   Haze
11:33 PM -4.0 °F -23.0 °F -9.4 °F 78% 29.83 in 2.0 mi West 12.7 mph 19.6 mph N/A Snow Light Snow
11:53 PM -4.0 °F -23.0 °F -7.6 °F 85% 29.83 in 1.2 mi WSW 12.7 mph - N/A Snow Light Snow